sat.trackr.live / text

‹ back to catalog

ERMIS-3

NORAD 68425 · 2026-067K

PAYLOAD ACTIVE UNKNOWN

§ Identity

Operator
Country
GREC
Launch date
2026-03-30
Launch site
AFWTR
Launch vehicle
Mass (kg)
RCS (m²)

External: N2YO · Heavens-Above · Gunter

§ Orbital elements

Epoch: 2026-09-19T15:14:35.485152Z

Period
94.76 min
Inclination
97.4691°
Eccentricity
0.0002589
Mean motion
15.19697217 rev/d
Perigee alt
505.0 km
Apogee alt
508.5 km
Semi-major
6,884.9 km
B*
2.0417e-4
RAAN
220.0728°
Arg perigee
50.3364°
Mean anomaly
309.8099°
Rev number
2,628

§ Raw data

ERMIS-31 68425U 26067K   26262.63513293  .00004291  00000+0  20417-3 0  99982 68425  97.4691 220.0728 0002589  50.3364 309.8099 15.19697217 26283

JSON: /api/v1/satellites/68425 · /tle

For live sub-satellite position, see the globe view (requires WebGL).

§ Visibility from observer

Set your observer location to see the next 7 days of passes ≥ 10°. The values pass through the URL so the page stays shareable.

No JS? Fill the form by hand. The geolocation button needs JavaScript.